Orbital Elements at Epoch 2459200.5 (2020-Dec-17.0) TDB
Reference: JPL 17 (heliocentric ecliptic J2000)
Element | Value | Uncertainty (1-sigma) | Units |
e | .2536037023525124 | 3.339e-08 | |
a | 2.560638081112335 | 1.4982e-08 | au |
q | 1.911250783357414 | 8.0993e-08 | au |
i | 12.25789855741475 | 3.7661e-06 | deg |
node | 267.1941148675436 | 4.7319e-05 | deg |
peri | 3.366798339756476 | 5.2962e-05 | deg |
M | 83.63033439045081 | 2.487e-05 | deg |
tp | 2458852.818118447720 (2020-Jan-04.31811845) | 0.0001023 | TDB |
period | 1496.651642865037 4.10 | 1.3135e-05 3.596e-08 | d yr |
n | .2405369357099376 | 2.111e-09 | deg/d |
Q | 3.210025378867257 | 1.8782e-08 | au |
|
| | Orbit Determination Parameters
Additional Information
|